Regional Weather Roundup
Issued by NWS

Home | Current Version | Previous Version | Graphics & Text | Print | Product List | Glossary On
Versions: 1 2 3 4 5 6 7 8 9 10 11 12 13 14 15 16 17 18 19 20 21 22 23 24 25 26 27 28 29 30 31 32 33 34 35 36 37 38 39 40 41 42 43 44 45 46 47 48 49 50
000
ASUS43 KDMX 280406
RWRIA

WEATHER ROUNDUP FOR IOWA
NATIONAL WEATHER SERVICE DES MOINES IA
1100 PM CDT SAT MAY 27 2017

NOTE: "FAIR" INDICATES FEW OR NO CLOUDS BELOW 12,000 FEET WITH NO
SIGNIFICANT WEATHER AND/OR OBSTRUCTIONS TO VISIBILITY.

* - THESE STATIONS ARE NOT NWS STATIONS...THUS NOT UNDER NWS
QUALITY CONTROL.  THEY ALSO DO NOT REPORT WEATHER SUCH
AS PRECIPITATION OR FOG.

IAZ001>003-012>014-020>022-031>034-043>046-280500-
   NORTHWEST IOWA

CITY           SKY/WX    TMP DP  RH WIND       PRES   REMARKS
CARROLL *      PTCLDY    59  59 100 W6        29.91R
CHEROKEE *     CLOUDY    59  55  84 NW5       29.91S
DENISON *      CLEAR     57  52  82 N5        29.92S
LE MARS *      CLOUDY    57  54  88 CALM      29.92F
ORANGE CITY *  CLEAR     55  54  94 W8        29.92S
SHELDON *      CLOUDY    57  54  88 SW7       29.89F
SIOUX CITY     LGT RAIN  59  52  77 NW7       29.93R
SPENCER        CLOUDY    59  55  87 CALM      29.90F
STORM LAKE *   CLOUDY    61  52  72 NW5       29.91F
$$

IAZ055>058-069>071-079>083-090>094-280500-
   SOUTHWEST IOWA

CITY           SKY/WX    TMP DP  RH WIND       PRES   REMARKS
ATLANTIC *     PTCLDY    59  57  94 CALM      29.90S
AUDUBON *      CLOUDY    57  55  94 CALM      29.91F
CLARINDA *     CLEAR     61  59  94 NE6       29.91F
COUNCIL BLFS * CLEAR     63  57  82 CALM      29.91R
CRESTON *      CLEAR     59  59 100 N7        29.90R
HARLAN  *      CLEAR     59  57  94 CALM      29.94S
LAMONI         CLEAR     59  58  96 N7        29.86F
RED OAK *      MOCLDY    59  57  94 CALM      29.91R
SHENANDOAH *   CLEAR     61  59  94 CALM      29.91R
$$

IAZ047>049-059>061-072>074-084-280500-
   CENTRAL IOWA

CITY           SKY/WX    TMP DP  RH WIND       PRES   REMARKS
AMES           CLEAR     55  55 100 CALM      29.86F
ANKENY *       CLEAR     55  54  94 CALM      29.87F
BOONE *        CLEAR     57  57 100 NW3       29.88F
CHARITON *     CLEAR     57  55  94 N5        29.86F
DES MOINES     PTCLDY    61  55  81 N6        29.86F
GRINNELL*      CLEAR     57  54  89 NW5       29.87F
KNOXVILLE *    CLEAR     57  54  88 NW8       29.85S
MARSHALLTOWN   CLOUDY    59  57  93 NW6       29.87S
NEWTON *       CLEAR     57  54  88 N7        29.86S
PELLA *        CLEAR     56  54  91 N5        29.86F
PERRY *          N/A     58  56  92 CALM      29.89S
$$

IAZ004>006-015-016-023>025-035-036-280500-
   NORTH CENTRAL IOWA

CITY           SKY/WX    TMP DP  RH WIND       PRES   REMARKS
ALGONA *       CLOUDY    63  50  63 S8        29.90S
CLARION *      PTCLDY    57  52  82 CALM      29.89F
ESTHERVILLE    CLOUDY    61  52  72 W8        29.88F
FORT DODGE *   CLEAR     54  48  82 CALM      29.91R
MASON CITY     MOCLDY    57  51  80 SW5       29.89S
FOREST CITY *  CLOUDY    59  45  58 CALM      29.88F
WEBSTER CITY * CLEAR     55  54  94 SW3       29.87S
IOWA FALLS *     N/A     57  54  89 CALM      29.89F
$$

IAZ007>011-017>019-026>030-037>042-050>054-066-280500-
   NORTHEAST IOWA

CITY           SKY/WX    TMP DP  RH WIND       PRES   REMARKS
CEDAR RAPIDS   MOCLDY    59  59 100 N8        29.83F
CHARLES CITY * PTCLDY    57  55  94 SW3       29.88R
CLINTON *      CLOUDY    65  62  90 N6        29.84S
DECORAH *      CLOUDY    59  52  77 CALM      29.84F
DUBUQUE        CLOUDY    61  58  90 N5        29.85R
MONTICELLO *   CLOUDY    61  59  94 N3        29.84F
OELWEIN *      CLOUDY    61  57  88 N5        29.86F
WATERLOO       CLOUDY    59  55  87 W3        29.86R
$$

IAZ064-065-067-068-078-280500-
   EAST CENTRAL IOWA

CITY           SKY/WX    TMP DP  RH WIND       PRES   REMARKS
DAVENPORT      CLOUDY    66  62  87 N7        29.83S
IOWA CITY      CLOUDY    63  58  83 CALM      29.85S
MT. PLEASANT * CLOUDY    64  64  99 N9        29.82S
MUSCATINE *    CLOUDY    64  61  88 N6        29.83S
QUAD CITIES    CLOUDY    64  60  87 CALM      29.81F
$$

IAZ062-063-075>077-085>089-095>099-280500-
   SOUTHEAST IOWA

CITY           SKY/WX    TMP DP  RH WIND       PRES   REMARKS
BURLINGTON     CLOUDY    67  64  90 NE7       29.81R
FAIRFIELD *    CLOUDY    61  59  94 N9        29.83S
FORT MADISON * CLOUDY    64  63  94 N3        29.82S
KEOKUK *       CLOUDY    66  64  94 N7        29.79F
OSKALOOSA *      N/A     58  55  89 N9        29.85S
CENTERVILLE *  MOCLDY    59  59 100 CALM      29.86S
OTTUMWA        CLEAR     60  58  92 N8        29.84S
WASHINGTON *   CLOUDY    61  61 100 N7        29.84F
$$

ABBREVIATIONS USED IN REMARKS
   TC - TEMPERATURES IN CELSIUS
  WCI - WIND CHILL INDEX
   HX - HEAT INDEX
  VSB - VISIBILITY
$$





USA.gov is the U.S. government's official web portal to all federal, state and local government web resources and services.